Location: Newark
(51.3318°N, 0.0053°E)
Time: 05:23:39
(UTC+00:00)

BlueWalker 3 - Pass Details

Date: 03 December 2022
Orbit: 499 x 517 km, 53.2° (Epoch: 28 January)

Event Time Altitude Azimuth Distance (km) Brightness Sun altitude
Rises 17:12:23 0° 270° (W) 2,633 7.0 -11.6°
Reaches altitude 10° 17:14:37 10° 274° (W) 1,743 5.8 -11.9°
Maximum altitude 17:18:32 65° 357° (N) 566 2.1 -12.5°
Enters shadow 17:21:02 21° 75° (ENE) 1,193 3.2 -12.8°
